Weather History for Crestview, FL

Change the Weather History Date:

Saturday, December 14, 2013

  Actual Average Record
Temperature  
Mean Temperature 64 °F -  
Max Temperature 73 °F - - ()
Min Temperature 54 °F - - ()
Degree Days  
Heating Degree Days 2    
Growing Degree Days 14 (Base 50)    
Moisture  
Dew Point 57 °F    
Average Humidity 76    
Maximum Humidity 94    
Minimum Humidity 63    
Precipitation  
Precipitation 0.01 in - - ()
Sea Level Pressure  
Sea Level Pressure 29.92 in    
Wind  
Wind Speed 7 mph (South)    
Max Wind Speed 22 mph    
Max Gust Speed 31 mph    
Visibility 10 miles    
Events Rain    
T = Trace of Precipitation, MM = Missing Value Source: NWS Daily Summary

Daily Weather History Graph

Daily Weather History Graph

Search for Another Location

Airport:

Trip Planner

Search our weather history database for the weather conditions in past years. The results will help you decide how hot, cold, wet, or windy it might be!

Date:

Astronomy

Dec. 14, 2013 Rise Set
Actual Time 6:35 AM CST 4:46 PM CST
Civil Twilight 6:08 AM CST 5:12 PM CST
Nautical Twilight 5:38 AM CST 5:42 PM CST
Astronomical Twilight 5:09 AM CST 6:12 PM CST
Moon 3:01 PM CST (12/14) 4:02 AM CST (12/14)
Length of Visible Light 11h 04m
Length of Day
10h 10m
Waxing Gibbous, 94% of the Moon is Illuminated
Dec 14
Waxing Gibbous
Dec 17
Full
Dec 25
Last Quarter
Jan 1
New
Jan 7
First Quarter

Hourly Weather History & Observations

Time (CST) Temp. Dew Point Humidity Pressure Visibility Wind Dir Wind Speed Gust Speed Precip Events Conditions
12:58 AM 54.0 °F 41.5 °F 63% 30.04 in 10.0 mi Variable 2.3 mph - N/A   Mostly Cloudy
1:58 AM 56.5 °F 44.1 °F 63% 30.02 in 10.0 mi Variable 1.2 mph - N/A   Mostly Cloudy
2:47 AM 55.4 °F 44.6 °F 67% 30.00 in 10.0 mi NE 2.3 mph - N/A   Light Drizzle
2:58 AM 55.6 °F 45.5 °F 69% 30.01 in 10.0 mi NNE 4.6 mph - 0.00 in   Light Drizzle
2:59 AM 55.4 °F 46.4 °F 72% 30.01 in 10.0 mi NE 4.6 mph - N/A   Overcast
3:58 AM 57.7 °F 47.8 °F 70% 29.98 in 10.0 mi ESE 6.9 mph - 0.00 in   Mostly Cloudy
4:07 AM 59.0 °F 48.2 °F 67% 29.97 in 10.0 mi ESE 8.1 mph - N/A Rain Light Rain
4:21 AM 57.2 °F 48.2 °F 72% 29.96 in 10.0 mi ESE 9.2 mph - N/A   Mostly Cloudy
4:46 AM 59.0 °F 50.0 °F 72% 29.96 in 10.0 mi SE 5.8 mph - N/A   Mostly Cloudy
4:51 AM 59.0 °F 50.0 °F 72% 29.96 in 10.0 mi SE 8.1 mph - N/A   Mostly Cloudy
4:58 AM 58.8 °F 50.2 °F 73% 29.97 in 10.0 mi SE 6.9 mph - 0.00 in   Scattered Clouds
5:58 AM 59.2 °F 51.6 °F 76% 29.96 in 10.0 mi SE 10.4 mph - N/A   Scattered Clouds
6:58 AM 59.7 °F 53.2 °F 79% 29.96 in 10.0 mi SE 8.1 mph - N/A   Mostly Cloudy
7:08 AM 59.0 °F 53.6 °F 82% 29.95 in 10.0 mi SSE 6.9 mph - N/A   Mostly Cloudy
7:58 AM 61.7 °F 55.2 °F 79% 29.95 in 10.0 mi SSE 5.8 mph - N/A   Mostly Cloudy
8:23 AM 62.6 °F 57.2 °F 82% 29.93 in 10.0 mi SSE 9.2 mph - N/A   Scattered Clouds
8:33 AM 64.4 °F 57.2 °F 77% 29.94 in 10.0 mi SSE 9.2 mph - N/A   Mostly Cloudy
8:53 AM 64.4 °F 57.2 °F 77% 29.94 in 10.0 mi SSE 9.2 mph - N/A   Mostly Cloudy
8:58 AM 64.2 °F 57.6 °F 79% 29.95 in 10.0 mi South 8.1 mph - N/A   Mostly Cloudy
9:13 AM 66.2 °F 59.0 °F 78% 29.94 in 10.0 mi SSE 9.2 mph - N/A   Mostly Cloudy
9:23 AM 66.2 °F 60.8 °F 83% 29.94 in 10.0 mi SSE 10.4 mph - N/A   Mostly Cloudy
9:28 AM 66.2 °F 60.8 °F 83% 29.94 in 10.0 mi South 9.2 mph - N/A   Mostly Cloudy
9:58 AM 68.0 °F 62.6 °F 83% 29.94 in 10.0 mi South 10.4 mph - N/A   Mostly Cloudy
10:03 AM 68.0 °F 62.6 °F 83% 29.93 in 10.0 mi SSE 10.4 mph - N/A   Mostly Cloudy
10:18 AM 68.0 °F 64.4 °F 88% 29.92 in 10.0 mi South 11.5 mph - N/A   Overcast
10:58 AM 69.8 °F 66.2 °F 88% 29.91 in 10.0 mi South 15.0 mph 24.2 mph N/A   Overcast
11:28 AM 71.6 °F 66.2 °F 83% 29.88 in 10.0 mi South 21.9 mph 28.8 mph N/A   Mostly Cloudy
11:38 AM 73.4 °F 64.4 °F 73% 29.87 in 10.0 mi South 21.9 mph 31.1 mph N/A   Mostly Cloudy
11:58 AM 73.2 °F 65.1 °F 76% 29.88 in 10.0 mi SSW 15.0 mph - N/A   Mostly Cloudy
12:03 PM 73.4 °F 64.4 °F 73% 29.87 in 10.0 mi SSW 17.3 mph 21.9 mph N/A   Scattered Clouds
12:23 PM 73.4 °F 64.4 °F 73% 29.86 in 10.0 mi South 15.0 mph - N/A   Mostly Cloudy
12:58 PM 72.9 °F 63.9 °F 73% 29.85 in 10.0 mi SW 15.0 mph - N/A   Mostly Cloudy
1:08 PM 73.4 °F 64.4 °F 73% 29.84 in 10.0 mi SW 15.0 mph 21.9 mph N/A   Mostly Cloudy
1:28 PM 73.4 °F 64.4 °F 73% 29.84 in 10.0 mi SW 16.1 mph - N/A   Scattered Clouds
1:58 PM 73.8 °F 63.5 °F 70% 29.85 in 10.0 mi WSW 15.0 mph 17.3 mph N/A   Partly Cloudy
2:33 PM 73.4 °F 64.4 °F 73% 29.84 in 10.0 mi SW 10.4 mph - N/A   Mostly Cloudy
2:58 PM 72.9 °F 64.4 °F 75% 29.86 in 10.0 mi SW 9.2 mph - N/A   Mostly Cloudy
3:08 PM 73.4 °F 64.4 °F 73% 29.85 in 10.0 mi SW 5.8 mph - N/A   Scattered Clouds
3:58 PM 72.0 °F 63.3 °F 74% 29.86 in 10.0 mi WSW 4.6 mph - N/A   Partly Cloudy
4:58 PM 69.3 °F 63.0 °F 80% 29.86 in 10.0 mi SW 3.5 mph - N/A   Scattered Clouds
5:58 PM 67.1 °F 62.6 °F 85% 29.87 in 10.0 mi SSW 5.8 mph - N/A   Mostly Cloudy
6:58 PM 65.3 °F 63.5 °F 94% 29.88 in 10.0 mi SSW 6.9 mph - N/A   Mostly Cloudy
7:58 PM 66.2 °F 62.6 °F 88% 29.90 in 10.0 mi West 4.6 mph - N/A   Mostly Cloudy
8:23 PM 66.2 °F 62.6 °F 88% 29.92 in 10.0 mi NW 9.2 mph - N/A   Mostly Cloudy
8:28 PM 66.2 °F 62.6 °F 88% 29.92 in 10.0 mi NW 6.9 mph - N/A   Mostly Cloudy
8:58 PM 65.7 °F 59.5 °F 81% 29.94 in 10.0 mi NNW 6.9 mph - N/A   Mostly Cloudy
9:58 PM 64.9 °F 52.5 °F 64% 29.96 in 10.0 mi NW 10.4 mph - N/A   Overcast
10:56 PM 60.8 °F 50.0 °F 68% 29.91 in 10.0 mi SW 2.3 mph - N/A Rain Light Rain
10:58 PM 60.8 °F 50.0 °F 68% 29.92 in 10.0 mi WSW 1.2 mph - N/A Rain Light Rain
11:58 PM 58.6 °F 52.3 °F 80% 29.93 in 10.0 mi West 4.6 mph - 0.01 in Rain Light Rain